Location: Newark
(37.9128°N, 122.4756°W)
Time: 13:56:45
(UTC+00:00)

ISS - Pass Details

Date: 28 November 2019
Orbit: 411 x 421 km, 51.6° (Epoch: 15 December)

Event Time Altitude Azimuth Distance (km) Brightness Sun altitude
Rises 01:53:07 0° 278° (W) 2,351 1.3 -12.0°
Reaches altitude 10° 01:55:58 10° 305° (NW) 1,493 -0.4 -12.5°
Maximum altitude 01:57:51 14° 339° (NNW) 1,270 -1.3 -12.9°
Drops below altitude 10° 01:59:44 10° 14° (NNE) 1,499 -1.2 -13.3°
Enters shadow 01:59:56 - 16° (NNE) 1,546 -1.2 -13.3°
